Flag for Denmark Weather past 2 weeks in Horsens, Denmark

Now
72 °F

Passing clouds.


Feels Like: 77 °F
Forecast: 60 / 77 °F
Wind: 14 mph from West

Location: Billund Lufthavn

Current Time: Jul 31, 2014 at 8:13:20 PM

Latest Report: Jul 31, 2014 at 7:20 PM


Visibility: N/A

Pressure: 29.89 "Hg

Humidity: 50%

Dew point: 52 °F

Location of HorsensLocation

Historic Weather in Horsens — Graph

°F

Horsens temperature yesterday

Maximum temperature yesterday: 73 °F (at 2:20 PM)
Minimum temperature yesterday: 54 °F (at 4:50 AM)
Average temperature yesterday: 64 °F

Past Weeks' High & Low Weather Summary

 TemperatureHumidityPressure
High82 °F (Jul 19, 1:50 PM)100% (Jul 17, 3:50 AM)30.27 "Hg (Jul 17, 3:50 AM)
Low46 °F (Jul 17, 3:20 AM)30% (Jul 23, 3:50 PM)29.80 "Hg (Jul 30, 4:50 AM)
Average69 °F68%30.03 "Hg
* Reported Jul 16 6:20 PM — Jul 31 6:50 PM, Horsens, Weather by CustomWeather, © 2014

Note: Actual official high and low records may vary slightly from our data, if they occured in-between our weather recording intervals... More about our weather records

Advertising

Horsens weather history for previous 24 hours

 ConditionsComfort  
Time TempWeatherWind HumidityBarometerVisibility
6:50 PM
Jul 31
72 °FScattered clouds.13 mph47%29.89 "HgN/A
6:20 PM72 °FScattered clouds.15 mph47%29.89 "HgN/A
5:50 PM72 °FScattered clouds.14 mph47%29.89 "HgN/A
5:20 PM73 °FScattered clouds.15 mph47%29.89 "HgN/A
4:50 PM72 °FScattered clouds.17 mph50%29.89 "HgN/A
4:20 PM72 °FScattered clouds.14 mph53%29.89 "HgN/A
3:50 PM72 °FScattered clouds.14 mph50%29.89 "HgN/A
3:20 PM72 °FScattered clouds.14 mph50%29.89 "HgN/A
2:50 PM73 °FScattered clouds.16 mph47%29.89 "HgN/A
2:20 PM72 °FScattered clouds.15 mph50%29.89 "HgN/A
1:50 PM72 °FScattered clouds.15 mph47%29.89 "HgN/A
1:20 PM72 °FScattered clouds.18 mph50%29.89 "HgN/A
12:50 PM70 °FScattered clouds.16 mph50%29.86 "HgN/A
12:20 PM72 °FScattered clouds.20 mph50%29.86 "HgN/A
11:50 AM70 °FScattered clouds.16 mph53%29.86 "HgN/A
11:20 AM68 °FScattered clouds.16 mph60%29.86 "HgN/A
10:50 AM68 °FScattered clouds.13 mph73%29.86 "HgN/A
10:20 AM66 °FSprinkles. Scattered clouds.13 mph78%29.86 "HgN/A
9:50 AM64 °FScattered clouds.9 mph73%29.86 "HgN/A
9:20 AM68 °FScattered clouds.12 mph69%29.86 "HgN/A
8:50 AM68 °FScattered clouds.8 mph73%29.86 "HgN/A
8:20 AM66 °FPassing clouds.7 mph78%29.86 "HgN/A
7:20 AM61 °FPassing clouds.6 mph88%29.86 "HgN/A
6:50 AM59 °FScattered clouds.5 mph94%29.86 "HgN/A
6:20 AM57 °FFog.5 mph94%29.86 "HgN/A
5:50 AM54 °FFog.No wind94%29.83 "HgN/A
5:20 AM54 °FFog.2 mph94%29.83 "HgN/A
4:50 AM52 °FPassing clouds.2 mph100%29.83 "HgN/A
3:50 AM54 °FPassing clouds.1 mph94%29.83 "HgN/A
2:50 AM54 °FPassing clouds.5 mph88%29.83 "HgN/A
2:20 AM54 °FPassing clouds.3 mph94%29.83 "HgN/A
1:50 AM55 °FPassing clouds.2 mph94%29.86 "HgN/A
12:50 AM57 °FPassing clouds.3 mph88%29.86 "HgN/A
12:20 AM59 °FPassing clouds.5 mph88%29.86 "HgN/A
11:50 PM
Jul 30
59 °FPassing clouds.3 mph88%29.86 "HgN/A
11:20 PM61 °FPassing clouds.3 mph83%29.86 "HgN/A
10:50 PM61 °FPassing clouds.7 mph83%29.83 "HgN/A
10:20 PM63 °FPartly sunny.8 mph77%29.83 "HgN/A
9:50 PM64 °FPartly sunny.9 mph78%29.83 "HgN/A
9:20 PM64 °FScattered clouds.10 mph78%29.83 "HgN/A
8:50 PM64 °FScattered clouds.10 mph73%29.83 "HgN/A
8:20 PM68 °FScattered clouds.10 mph56%29.83 "HgN/A
Weather by CustomWeather, © 2014

See weather overviewHow to use our weather pages